Track SOLRAD 7B now! 10-day predictions SOLRAD 7B is classified as:
1 01291U 65016D 22175.48103996 -.00000017 00000-0 26139-4 0 9992 2 01291 70.0800 86.0148 0023151 233.2250 126.6730 13.94641856914035